Regional Weather Roundup
Issued by NWS

Home | Current Version | Previous Version | Graphics & Text | Print | Product List | Glossary On
Versions: 1 2 3 4 5 6 7 8 9 10 11 12 13 14 15 16 17 18 19 20 21 22 23 24 25 26 27 28 29 30 31 32 33 34 35 36 37 38 39 40 41 42 43 44 45 46 47 48 49 50
000
ASUS45 KPSR 210400
RWRAZ

PRELIMINARY ARIZONA REGIONAL HOURLY WEATHER ROUNDUP
NATIONAL WEATHER SERVICE PHOENIX AZ
900 PM MST SUN APR 20 2014

NOTE: FAIR INDICATES FEW OR NO CLOUDS BELOW 12,000 FEET WITH NO
SIGNIFICANT WEATHER AND/OR OBSTRUCTIONS TO VISIBILITY.

AZZ001>003-036-210500-
NORTHWEST ARIZONA

CITY           SKY/WX    TMP DP  RH WIND       PRES   REMARKS
KINGMAN        CLEAR     71  32  23 SW9       30.07R
$$

AZZ004>008-015-016-018-210500-
NORTH CENTRAL ARIZONA

CITY           SKY/WX    TMP DP  RH WIND       PRES   REMARKS
GRAND CANYON   PTCLDY    43  30  60 CALM      30.25R
WILLIAMS       PTCLDY    54  32  43 CALM      30.32R
PRESCOTT       MOCLDY    64  40  41 S6        30.17R
FLAGSTAFF      CLEAR     45  37  73 CALM      30.28R
PAYSON         PTCLDY    59  41  51 NW5       30.20R
PAGE           PTCLDY    72  34  24 N5        30.09R
$$

AZZ009>014-017-210500-
NORTHEAST ARIZONA

CITY           SKY/WX    TMP DP  RH WIND       PRES   REMARKS
WINSLOW        NOT AVBL
SAINT JOHNS    CLEAR     59  34  39 SW13      30.17R
WINDOW ROCK    PTCLDY    51  29  42 E3        30.22R
SHOW LOW       CLEAR     54  34  47 S10       30.26R
$$

AZZ023-210500-
GREATER PHOENIX AREA

CITY           SKY/WX    TMP DP  RH WIND       PRES   REMARKS
PHOENIX        CLEAR     83  37  19 SW6       29.95R
LUKE AFB       NOT AVBL
DEER VALLEY    CLEAR     80  32  17 CALM      29.97R
SCOTTSDALE     CLEAR     81  36  19 CALM      29.99R
MESA-GATEWAY   CLEAR     79  36  21 CALM      30.00R
CHANDLER       CLEAR     81  37  21 CALM      29.97R
$$

AZZ027-028-210500-
SOUTHWEST MARICOPA COUNTY AND PINAL COUNTY

CITY           SKY/WX    TMP DP  RH WIND       PRES   REMARKS
CASA GRANDE    CLEAR     73  32  21 CALM      29.99R
$$

AZZ503-504-507>509-210500-
SOUTHEAST ARIZONA

CITY           SKY/WX    TMP DP  RH WIND       PRES   REMARKS
TUCSON         CLEAR     78  35  21 N7        30.05R
DAVIS-MONTHAN  CLEAR     74  37  25 N7        30.05R
NOGALES        CLEAR     66  32  28 N5        30.10R
SIERRA VISTA   CLEAR     66  31  27 MISG      30.15R
SAFFORD        CLEAR     71  33  24 SE5       30.04R
$$

AZZ020-021-025-026-031-210500-
SOUTHWEST ARIZONA

CITY           SKY/WX    TMP DP  RH WIND       PRES   REMARKS
YUMA           CLEAR     81  45  28 SW5       29.94R
$$

CAZ031-033-041-043-047-048-061-210500-
SOUTHERN CALIFORNIA

CITY           SKY/WX    TMP DP  RH WIND       PRES   REMARKS
DOWNTOWN L.A.  CLEAR     63  56  78 W3        30.03R
L.A. AIRPORT   PTCLDY    61  57  87 SW7       30.04R
SAN DIEGO      PTCLDY    63  55  75 NW6       30.07R
BURBANK        CLEAR     68  55  63 S5        30.02R
ONTARIO        CLEAR     70  53  54 SW6       30.03R
RIVERSIDE      CLEAR     70  53  54 W3        30.03R
PALM SPRINGS   CLEAR     85  47  26 CALM      29.96R
EL CENTRO NAS  CLEAR     78  49  35 SE8       29.90R
IMPERIAL       CLEAR     83  44  25 SE8       29.90R
BLYTHE         CLEAR     87  41  19 SW9       29.92R
$$

NVZ020-UTZ003-210500-
SOUTHERN NEVADA-UTAH

CITY           SKY/WX    TMP DP  RH WIND       PRES   REMARKS
LAS VEGAS      NOT AVBL
SALT LAKE CITY MOCLDY    58  27  30 SW3       30.17R
$$

NMZ009-TXZ055-210500-
NEW MEXICO-WEST TEXAS

CITY           SKY/WX    TMP DP  RH WIND       PRES   REMARKS
ALBUQUERQUE    MOCLDY    65  35  33 SE14      30.11R
EL PASO        CLEAR     71  38  29 NW3       30.08R
$$


........................KEY........................
SKY/WX - SKY CONDITION/WEATHER
TMP    - TEMPERATURE IN FAHRENHEIT
DP     - DEW POINT IN FAHRENHEIT
RH     - RELATIVE HUMIDITY IN PERCENT
WIND   - DIRECTION AND SPEED IN MILES PER HOUR (MPH)
VRB    - VARIABLE WIND DIRECTION
PRES   - MEAN SEA LEVEL PRESSURE IN INCHES OF MERCURY
         F - FALLING PRESSURE   R - RISING PRESSURE
         S - STEADY PRESSURE
VSB    - VISIBILITY IN MILES
HX     - HEAT INDEX IN FAHRENHEIT
WCI    - WIND CHILL INDEX IN FAHRENHEIT
TC     - TEMPERATURE IN CELSIUS WHICH IS ALSO KNOWN AS
         TEMPERATURE IN CENTIGRADE
AFB    - AIR FORCE BASE
         LUKE AFB IS LUKE AIR FORCE BASE
         DAVIS-MONTHAN IS DAVIS-MONTHAN AIR FORCE BASE
NAS    - NAVAL AIR STATION
         EL CENTRO NAS IS EL CENTRO NAVAL AIR STATION
N/A    - NOT AVAILABLE



USA.gov is the U.S. government's official web portal to all federal, state and local government web resources and services.